map of ABV home
Great Circle Mapper logo
ABV - Airport
Location
City:  Abuja, Nigeria
Name:Nnamdi Azikiwe International Airport
ICAO / IATA:DNAA / ABV

Details
Type:Airport (Aerodrome, Airfield)
Use:Public/Civil, International (customs port of entry)
Latitude:900'24"N (9.006792)
Longitude:715'47"E (7.263172)
Datum:WGS 1984
Elevation:1123 ft (342 m)
Variation:1.1W (WMM2015 magnetic declination)
Runways:1
Longest:11842 × 197 ft (3609 × 60 m), paved

Time
Time Zone:UTC+1
Local Time:

Weather
METAR:DNAA 191100Z VRB05KT 3000 HZ NSC 33/10 Q1015 BECMG 5000
TAF:DNAA 190930Z 1912/2018 VRB01KT 2000 HZ NSC
BECMG 1912/1914 13006KT 5000
TEMPO 1918/1923 06005KT 7000 NSW
TEMPO 2003/2007 VRB02KT 3000 HZ

Related Locations
Nearby:
Farthest:AAU: 12121 mi / 19506 km
Asau, WS

Find:

   beyond  
but within

Other Information
Maps:
NOTAMs:
Links:
Sources:

  
flag of Nigeria   

Sectional Chart

Flight Planning
at skyvector.com

Satellite Image

Google Maps Satellite View

 

Copyright © 2004-2014 Karl L. Swartz. All rights reserved.
The Great Circle Mapper name and logo are trademarks of the Great Circle Mapper.
All other trademarks mentioned herein belong to their respective owners.
Please see credits for attibutions and further copyright information.

  Follow gcmap on Facebook Follow gcmap on Twitter

hCard Microformat

Geo Microformat